TimeEST,TemperatureF,Dew PointF,Humidity,Sea Level PressureIn,VisibilityMPH,Wind Direction,Wind SpeedMPH,Gust SpeedMPH,PrecipitationIn,Events,Conditions,WindDirDegrees,DateUTC
12:54 AM,30.0,16.0,56,30.16,10.0,Calm,Calm,-,N/A,,Clear,0,2012-11-06 05:54:00
1:54 AM,27.0,16.0,63,30.17,10.0,Calm,Calm,-,N/A,,Clear,0,2012-11-06 06:54:00
2:54 AM,26.1,16.0,66,30.17,10.0,Calm,Calm,-,N/A,,Clear,0,2012-11-06 07:54:00
3:54 AM,24.1,17.1,75,30.19,10.0,Calm,Calm,-,N/A,,Clear,0,2012-11-06 08:54:00
4:54 AM,23.0,17.1,78,30.19,10.0,Calm,Calm,-,N/A,,Clear,0,2012-11-06 09:54:00
5:54 AM,21.9,16.0,78,30.20,10.0,Calm,Calm,-,N/A,,Clear,0,2012-11-06 10:54:00
6:54 AM,21.0,16.0,81,30.22,10.0,NE,4.6,-,N/A,,Clear,50,2012-11-06 11:54:00
7:54 AM,26.1,19.0,75,30.24,10.0,Calm,Calm,-,N/A,,Clear,0,2012-11-06 12:54:00
8:54 AM,30.9,17.1,57,30.25,10.0,Calm,Calm,-,N/A,,Clear,0,2012-11-06 13:54:00
9:54 AM,35.1,10.9,37,30.26,10.0,North,6.9,-,N/A,,Clear,360,2012-11-06 14:54:00
10:54 AM,36.0,10.9,36,30.25,10.0,Variable,3.5,-,N/A,,Clear,0,2012-11-06 15:54:00
11:54 AM,37.9,12.0,35,30.22,10.0,NNE,8.1,-,N/A,,Clear,30,2012-11-06 16:54:00
12:54 PM,39.0,12.0,33,30.21,10.0,East,6.9,-,N/A,,Clear,90,2012-11-06 17:54:00
1:54 PM,39.0,12.0,33,30.21,10.0,ESE,5.8,-,N/A,,Clear,120,2012-11-06 18:54:00
2:54 PM,39.9,12.0,32,30.20,10.0,Calm,Calm,-,N/A,,Clear,0,2012-11-06 19:54:00
3:54 PM,37.9,12.0,35,30.20,10.0,East,4.6,-,N/A,,Clear,80,2012-11-06 20:54:00
4:54 PM,34.0,12.9,42,30.21,10.0,Calm,Calm,-,N/A,,Clear,0,2012-11-06 21:54:00
5:54 PM,28.9,14.0,54,30.22,10.0,Calm,Calm,-,N/A,,Clear,0,2012-11-06 22:54:00
6:54 PM,28.0,16.0,61,30.23,10.0,Calm,Calm,-,N/A,,Clear,0,2012-11-06 23:54:00
7:54 PM,26.1,15.1,63,30.25,10.0,Calm,Calm,-,N/A,,Clear,0,2012-11-07 00:54:00
8:54 PM,25.0,15.1,66,30.25,10.0,Calm,Calm,-,N/A,,Clear,0,2012-11-07 01:54:00
9:54 PM,24.1,16.0,71,30.24,10.0,Calm,Calm,-,N/A,,Clear,0,2012-11-07 02:54:00
10:54 PM,21.9,16.0,78,30.22,10.0,Calm,Calm,-,N/A,,Clear,0,2012-11-07 03:54:00
11:54 PM,21.9,14.0,72,30.21,10.0,Calm,Calm,-,N/A,,Clear,0,2012-11-07 04:54:00